Regional Weather Roundup
Issued by NWS Goodland, KS

Home | Current Version | Previous Version | Graphics & Text | Print | Product List | Glossary On
Versions: 1 2 3 4 5 6 7 8 9 10 11 12 13 14 15 16 17 18 19 20 21 22 23 24 25 26 27 28 29 30 31 32 33 34 35 36 37 38 39 40 41 42 43 44 45 46 47 48 49 50
000
ASUS43 KGLD 261308
RWRGLD

GOODLAND FORECAST AREA HOURLY WEATHER ROUNDUP
NATIONAL WEATHER SERVICE GOODLAND KS
600 AM MST MON JAN 26 2015

...OFFICIAL OBSERVATIONS...

CITY           SKY/WX    TMP DP  RH WIND       PRES   REMARKS
GOODLAND KS    CLEAR     40  30  67 W18       30.12R
HILL CITY KS   PTCLDY    44  31  60 NW12      30.03S
IMPERIAL NEB   CLEAR     40  29  64 W13       30.09R
MCCOOK NEB     CLEAR     40  31  70 W14       30.04R
AKRON CO       CLEAR     35  28  75 W14       30.17R
BURLINGTON CO  CLEAR     36  28  73 W10       30.15S
LIMON CO       CLEAR     35  25  66 W15       30.22R
$$

...UNOFFICIAL OBSERVATIONS...

CITY           SKY/WX    TMP DP  RH WIND       PRES   REMARKS
COLBY KS       CLEAR     37  34  87 W13       30.11R
GOVE KS          N/A     39  32  76 MISG        N/A
NORTON KS      CLEAR     37  28  70 W13       30.03R
SHARON SPRINGS   N/A     37  30  75 W9          N/A
KIT CARSON CO    N/A     28  24  86 MISG        N/A
YUMA CO          N/A     38  29  69 W16         N/A
$$



USA.gov is the U.S. government's official web portal to all federal, state and local government web resources and services.